Weather History for Omaha, NE

Change the Weather History Date:

Friday, August 3, 2012

  Actual Average Record
Temperature  
Mean Temperature 84 °F 76 °F  
Max Temperature 97 °F 87 °F 111 °F (1930)
Min Temperature 71 °F 66 °F 50 °F (1974)
Degree Days  
Heating Degree Days 0 0  
Month to date heating degree days 0 0  
Since 1 June heating degree days 9 18  
Since 1 July heating degree days 0 1  
Cooling Degree Days 19 11  
Month to date cooling degree days 60 33  
Year to date cooling degree days 1260 710  
Since 1 June cooling degree days 1032 628  
Growing Degree Days 34 (Base 50)    
Moisture  
Dew Point 66 °F    
Average Humidity 59    
Maximum Humidity 84    
Minimum Humidity 33    
Precipitation  
Precipitation 0.00 in 0.13 in 2.84 in (2004)
Month to date precipitation T 0.39  
Year to date precipitation 14.33 19.68  
Snow  
Snow 0.00 in 0.00 in - ()
Month to date snowfall 0.0 0.0  
Since 1 July snowfall 0.0 0.0  
Snow Depth 0.00 in    
Sea Level Pressure  
Sea Level Pressure 29.77 in    
Wind  
Wind Speed 8 mph (SSE)    
Max Wind Speed 20 mph    
Max Gust Speed 24 mph    
Visibility 10 miles    
Events      
T = Trace of Precipitation, MM = Missing Value Source: NWS Daily Summary

Daily Weather History Graph

Daily Weather History Graph

Search for Another Location

Airport:

Trip Planner

Search our weather history database for the weather conditions in past years. The results will help you decide how hot, cold, wet, or windy it might be!

Date:

Astronomy

Aug. 03, 2012 Rise Set
Actual Time 6:21 AM CDT 8:37 PM CDT
Civil Twilight 5:50 AM CDT 9:08 PM CDT
Nautical Twilight 5:12 AM CDT 9:46 PM CDT
Astronomical Twilight 4:30 AM CDT 10:27 PM CDT
Moon 9:14 PM CDT (8/3) 8:07 AM CDT (8/3)
Length of Visible Light 15h 17m
Length of Day
14h 16m
Full, 97% of the Moon is Illuminated
Aug 3
Full
Aug 9
Last Quarter
Aug 17
New
Aug 24
First Quarter
Aug 31
Full

Hourly Weather History & Observations

Time (CDT) Temp. Heat Index Dew Point Humidity Pressure Visibility Wind Dir Wind Speed Gust Speed Precip Events Conditions
12:52 AM 80.6 °F 82.7 °F 66.2 °F 61% 29.82 in 10.0 mi ENE 12.7 mph - N/A   Mostly Cloudy
1:52 AM 75.9 °F - 66.9 °F 74% 29.78 in 10.0 mi NNW 3.5 mph - N/A   Overcast
2:52 AM 73.9 °F - 66.9 °F 79% 29.78 in 10.0 mi NW 6.9 mph - N/A   Overcast
3:52 AM 73.0 °F - 66.9 °F 81% 29.79 in 10.0 mi NNW 5.8 mph - N/A   Scattered Clouds
4:52 AM 71.1 °F - 66.0 °F 84% 29.78 in 10.0 mi NNW 6.9 mph - N/A   Partly Cloudy
5:52 AM 72.0 °F - 66.0 °F 81% 29.81 in 10.0 mi North 8.1 mph - N/A   Mostly Cloudy
6:52 AM 72.0 °F - 66.0 °F 81% 29.84 in 10.0 mi North 4.6 mph - N/A   Mostly Cloudy
7:52 AM 73.9 °F - 66.0 °F 76% 29.86 in 10.0 mi Calm Calm - N/A   Scattered Clouds
8:52 AM 78.1 °F - 66.9 °F 68% 29.81 in 10.0 mi Variable 3.5 mph - N/A   Scattered Clouds
9:52 AM 82.0 °F 84.9 °F 68.0 °F 62% 29.80 in 10.0 mi SSE 3.5 mph - N/A   Mostly Cloudy
10:52 AM 86.0 °F 89.4 °F 68.0 °F 55% 29.80 in 10.0 mi SSE 6.9 mph - N/A   Mostly Cloudy
11:52 AM 89.1 °F 93.7 °F 69.1 °F 52% 29.80 in 10.0 mi South 4.6 mph - N/A   Mostly Cloudy
12:52 PM 93.0 °F 96.4 °F 66.9 °F 42% 29.78 in 10.0 mi Calm Calm - N/A   Mostly Cloudy
1:52 PM 95.0 °F 97.0 °F 64.0 °F 36% 29.76 in 10.0 mi South 10.4 mph - N/A   Scattered Clouds
2:52 PM 97.0 °F 98.3 °F 63.0 °F 32% 29.75 in 10.0 mi South 12.7 mph 21.9 mph N/A   Scattered Clouds
3:52 PM 96.1 °F 99.3 °F 66.0 °F 37% 29.74 in 10.0 mi SSE 10.4 mph 20.7 mph N/A   Scattered Clouds
4:52 PM 97.0 °F 98.3 °F 63.0 °F 32% 29.74 in 10.0 mi SSE 13.8 mph 17.3 mph N/A   Scattered Clouds
5:52 PM 96.1 °F 97.3 °F 63.0 °F 33% 29.73 in 10.0 mi South 9.2 mph - N/A   Scattered Clouds
6:52 PM 95.0 °F 97.4 °F 64.9 °F 37% 29.72 in 10.0 mi SE 17.3 mph - N/A   Partly Cloudy
7:52 PM 93.0 °F 95.9 °F 66.0 °F 41% 29.70 in 10.0 mi SSE 17.3 mph - N/A   Partly Cloudy
8:52 PM 90.0 °F 94.5 °F 69.1 °F 50% 29.70 in 10.0 mi South 16.1 mph - N/A   Scattered Clouds
9:52 PM 88.0 °F 91.4 °F 68.0 °F 51% 29.75 in 10.0 mi South 8.1 mph - N/A   Scattered Clouds
10:52 PM 86.0 °F 89.4 °F 68.0 °F 55% 29.75 in 10.0 mi South 6.9 mph - N/A   Mostly Cloudy
11:52 PM 82.9 °F 86.5 °F 69.1 °F 63% 29.73 in 10.0 mi ESE 3.5 mph - N/A   Mostly Cloudy